Location: Newark
(0.5300°S, 127.4800°E)
Time: 19:12:30
(UTC+00:00)

Vanguard 3 - Pass Details

Date: 18 September 2019
Orbit: 508 x 3262 km, 33.3° (Epoch: 21 October)

Event Time Altitude Azimuth Distance (km) Brightness Sun altitude
Rises 03:10:50 0° 311° (NW) 7,123 12.0 85.8°
Reaches altitude 10° 03:19:04 10° 329° (NNW) 6,193 11.8 87.1°
Maximum altitude 03:29:48 17° 3° (N) 5,416 11.6 87.1°
Drops below altitude 10° 03:39:21 10° 37° (NE) 5,463 11.5 85.5°
Sets 03:45:41 0° 57° (ENE) 5,973 11.5 84.1°
